Location: Sabalos
(43.2860°N, 0.1414°E)
Time: 04:28:43
(UTC+00:00)

COSMOS 2455 - Pass Details

Date: 05 July 2020
Orbit: 898 x 911 km, 67.1° (Epoch: 05 August)

Event Time Altitude Azimuth Distance (km) Brightness Sun altitude
Rises 23:26:45 0° 333° (NNW) 3,550 7.2 -23.5°
Reaches altitude 10° 23:29:25 10° 340° (NNW) 2,606 6.3 -23.6°
Maximum altitude 23:35:09 43° 51° (NE) 1,263 3.8 -23.7°
Enters shadow 23:38:24 24° 109° (ESE) 1,806 4.2 -23.8°
